Time,TemperatureF,DewpointF,PressureIn,WindDirection,WindDirectionDegrees,WindSpeedMPH,WindSpeedGustMPH,Humidity,HourlyPrecipIn,Conditions,Clouds,dailyrainin,SoftwareType,DateUTC
2013-02-13 00:30:00,43.0,39.4,30.11,SE,135,0.0,6.0,87,0.00,,,0.00,Weather View 32 v70,2013-02-13 08:30:00,
2013-02-13 06:00:00,34.0,-57.1,30.07,NE,45,0.0,1.0,1,0.00,,,0.00,Weather View 32 v70,2013-02-13 14:00:00,
2013-02-13 07:30:00,38.0,-54.6,30.11,ESE,112,0.0,0.0,1,0.00,,,0.00,Weather View 32 v70,2013-02-13 15:30:00,
2013-02-13 08:00:00,42.0,-52.1,30.14,SSE,157,0.0,3.0,1,0.00,,,0.00,Weather View 32 v70,2013-02-13 16:00:00,
2013-02-13 08:30:00,46.0,40.8,30.17,ESE,112,2.0,3.0,82,0.00,,,0.00,Weather View 32 v70,2013-02-13 16:30:00,
2013-02-13 09:00:00,48.0,43.4,30.18,SSE,157,6.0,8.0,84,0.00,,,0.00,Weather View 32 v70,2013-02-13 17:00:00,
2013-02-13 09:30:00,50.0,43.4,30.19,SSE,157,7.0,8.0,78,0.00,,,0.00,Weather View 32 v70,2013-02-13 17:30:00,
2013-02-13 10:00:00,53.0,43.5,30.20,SSW,202,1.0,8.0,70,0.00,,,0.00,Weather View 32 v70,2013-02-13 18:00:00,
2013-02-13 10:30:00,55.0,43.4,30.21,SSE,157,2.0,8.0,65,0.00,,,0.00,Weather View 32 v70,2013-02-13 18:30:00,
2013-02-13 11:00:00,58.0,42.8,30.21,SSE,157,4.0,7.0,57,0.00,,,0.00,Weather View 32 v70,2013-02-13 19:00:00,
2013-02-13 11:30:00,59.0,41.4,30.21,WSW,247,0.0,7.0,52,0.00,,,0.00,Weather View 32 v70,2013-02-13 19:30:00,
2013-02-13 12:00:00,61.0,40.6,30.19,WSW,247,0.0,7.0,47,0.00,,,0.00,Weather View 32 v70,2013-02-13 20:00:00,
2013-02-13 12:30:00,63.0,40.7,30.18,South,180,0.0,5.0,44,0.00,,,0.00,Weather View 32 v70,2013-02-13 20:30:00,
2013-02-13 13:00:00,63.0,40.7,30.17,WNW,292,0.0,0.0,44,0.00,,,0.00,Weather View 32 v70,2013-02-13 21:00:00,
2013-02-13 13:30:00,63.0,41.3,30.16,NNW,337,0.0,0.0,45,0.00,,,0.00,Weather View 32 v70,2013-02-13 21:30:00,
2013-02-13 14:00:00,64.0,42.2,30.15,WNW,292,0.0,0.0,45,0.00,,,0.00,Weather View 32 v70,2013-02-13 22:00:00,
2013-02-13 14:30:00,64.0,39.1,30.15,NNW,337,0.0,0.0,40,0.00,,,0.00,Weather View 32 v70,2013-02-13 22:30:00,
2013-02-13 15:30:00,63.0,40.1,30.14,NNW,337,0.0,6.0,43,0.00,,,0.00,Weather View 32 v70,2013-02-13 23:30:00,
2013-02-13 16:00:00,63.0,40.7,30.13,NW,315,2.0,6.0,44,0.00,,,0.00,Weather View 32 v70,2013-02-14 00:00:00,
2013-02-13 16:30:00,63.0,40.7,30.13,West,270,5.0,6.0,44,0.00,,,0.00,Weather View 32 v70,2013-02-14 00:30:00,
2013-02-13 18:00:00,56.0,40.5,30.08,West,270,0.0,0.0,56,0.00,,,0.00,Weather View 32 v70,2013-02-14 02:00:00,
2013-02-13 18:30:00,54.0,41.7,30.07,West,270,0.0,0.0,63,0.00,,,0.00,Weather View 32 v70,2013-02-14 02:30:00,
2013-02-13 19:00:00,51.0,42.6,30.06,West,270,0.0,0.0,73,0.00,,,0.00,Weather View 32 v70,2013-02-14 03:00:00,
2013-02-13 19:30:00,50.0,40.6,30.06,West,270,0.0,0.0,70,0.00,,,0.00,Weather View 32 v70,2013-02-14 03:30:00,
2013-02-13 20:00:00,48.0,44.3,30.05,West,270,0.0,0.0,87,0.00,,,0.00,Weather View 32 v70,2013-02-14 04:00:00,
2013-02-13 20:05:00,48.0,44.3,30.05,West,270,0.0,0.0,87,0.00,,,0.00,Weather View 32 v70,2013-02-14 04:05:00,
2013-02-13 20:30:00,47.0,40.8,30.05,West,270,0.0,0.0,79,0.00,,,0.00,Weather View 32 v70,2013-02-14 04:30:00,
2013-02-13 21:00:00,45.0,38.9,30.05,ESE,112,0.0,2.0,79,0.00,,,0.00,Weather View 32 v70,2013-02-14 05:00:00,
2013-02-13 21:06:00,45.0,38.9,30.05,ESE,112,0.0,2.0,79,0.00,,,0.00,Weather View 32 v70,2013-02-14 05:06:00,
2013-02-13 21:30:00,44.0,24.0,30.05,ESE,112,0.0,2.0,45,0.00,,,0.00,Weather View 32 v70,2013-02-14 05:30:00,
2013-02-13 22:00:00,44.0,31.8,30.05,ESE,112,0.0,0.0,62,0.00,,,0.00,Weather View 32 v70,2013-02-14 06:00:00,
2013-02-13 22:06:00,44.0,31.8,30.05,ESE,112,0.0,0.0,62,0.00,,,0.00,Weather View 32 v70,2013-02-14 06:06:00,
2013-02-13 22:30:00,43.0,23.6,30.04,ESE,112,0.0,0.0,46,0.00,,,0.00,Weather View 32 v70,2013-02-14 06:30:00,
2013-02-13 23:00:00,44.0,26.5,30.04,ESE,112,0.0,0.0,50,0.00,,,0.00,Weather View 32 v70,2013-02-14 07:00:00,
2013-02-13 23:07:00,44.0,26.5,30.04,ESE,112,0.0,0.0,50,0.00,,,0.00,Weather View 32 v70,2013-02-14 07:07:00,
2013-02-13 23:30:00,43.0,25.1,30.03,ESE,112,0.0,0.0,49,0.00,,,0.00,Weather View 32 v70,2013-02-14 07:30:00,